Time,TemperatureF,DewpointF,PressureIn,WindDirection,WindDirectionDegrees,WindSpeedMPH,WindSpeedGustMPH,Humidity,HourlyPrecipIn,Conditions,Clouds,dailyrainin,SolarRadiationWatts/m^2,SoftwareType,DateUTC
2013-03-08 00:01:00,38.0,27.0,-100.00,SSW,192,1.0,6.0,64,0.00,,,0.00,0.000000,,2013-03-08 08:01:00,
2013-03-08 00:11:00,38.0,27.0,-100.00,SSW,192,1.0,6.0,64,0.00,,,0.00,0.000000,,2013-03-08 08:11:00,
2013-03-08 00:21:00,38.0,27.0,-100.00,SSW,192,1.0,6.0,64,0.00,,,0.00,0.000000,,2013-03-08 08:21:00,
2013-03-08 00:52:00,39.0,29.0,-100.00,West,261,3.0,8.0,66,0.00,,,0.00,0.000000,,2013-03-08 08:52:00,
2013-03-08 01:02:00,39.0,29.0,-100.00,West,261,3.0,8.0,66,0.00,,,0.00,0.000000,,2013-03-08 09:02:00,
2013-03-08 01:11:00,39.0,29.0,-100.00,West,261,3.0,8.0,66,0.00,,,0.00,0.000000,,2013-03-08 09:11:00,
2013-03-08 01:21:00,39.0,29.0,-100.00,West,261,3.0,8.0,66,0.00,,,0.00,0.000000,,2013-03-08 09:21:00,
2013-03-08 01:52:00,40.0,29.0,-100.00,West,277,3.0,8.0,65,0.00,,,0.00,0.000000,,2013-03-08 09:52:00,
2013-03-08 02:01:00,40.0,29.0,-100.00,West,277,3.0,8.0,65,0.00,,,0.00,0.000000,,2013-03-08 10:01:00,
2013-03-08 02:11:00,40.0,29.0,-100.00,West,277,3.0,8.0,65,0.00,,,0.00,0.000000,,2013-03-08 10:11:00,
2013-03-08 02:21:00,40.0,29.0,-100.00,West,277,3.0,8.0,65,0.00,,,0.00,0.000000,,2013-03-08 10:21:00,
2013-03-08 02:52:00,39.0,29.0,-100.00,West,275,8.0,13.0,66,0.00,,,-99.99,0.000000,,2013-03-08 10:52:00,
2013-03-08 03:01:00,39.0,29.0,-100.00,West,275,8.0,13.0,66,0.00,,,-99.99,0.000000,,2013-03-08 11:01:00,
2013-03-08 03:11:00,39.0,29.0,-100.00,West,275,8.0,13.0,66,0.00,,,-99.99,0.000000,,2013-03-08 11:11:00,
2013-03-08 03:21:00,39.0,29.0,-100.00,West,275,8.0,13.0,66,0.00,,,-99.99,0.000000,,2013-03-08 11:21:00,
2013-03-08 03:52:00,38.0,27.0,-100.00,SW,231,7.0,13.0,64,0.00,,,0.00,0.000000,,2013-03-08 11:52:00,
2013-03-08 04:01:00,38.0,27.0,-100.00,SW,231,7.0,13.0,64,0.00,,,0.00,0.000000,,2013-03-08 12:01:00,
2013-03-08 04:11:00,38.0,27.0,-100.00,SW,231,7.0,13.0,64,0.00,,,0.00,0.000000,,2013-03-08 12:11:00,
2013-03-08 04:22:00,38.0,27.0,-100.00,SW,231,7.0,13.0,64,0.00,,,0.00,0.000000,,2013-03-08 12:22:00,
2013-03-08 04:52:00,38.0,28.0,-100.00,SW,223,7.0,14.0,68,0.00,,,0.00,0.000000,,2013-03-08 12:52:00,
2013-03-08 05:01:00,38.0,28.0,-100.00,SW,223,7.0,14.0,68,0.00,,,0.00,0.000000,,2013-03-08 13:01:00,
2013-03-08 05:11:00,38.0,28.0,-100.00,SW,223,7.0,14.0,68,0.00,,,0.00,0.000000,,2013-03-08 13:11:00,
2013-03-08 05:21:00,38.0,28.0,-100.00,SW,223,7.0,14.0,68,0.00,,,0.00,0.000000,,2013-03-08 13:21:00,
2013-03-08 05:52:00,40.0,29.0,-100.00,SW,221,8.0,16.0,64,0.00,,,0.00,0.000000,,2013-03-08 13:52:00,
2013-03-08 06:02:00,40.0,29.0,-100.00,SW,221,8.0,16.0,64,0.00,,,0.00,0.000000,,2013-03-08 14:02:00,
2013-03-08 06:11:00,40.0,29.0,-100.00,SW,221,8.0,16.0,64,0.00,,,0.00,0.000000,,2013-03-08 14:11:00,
2013-03-08 06:21:00,40.0,29.0,-100.00,SW,221,8.0,16.0,64,0.00,,,0.00,0.000000,,2013-03-08 14:21:00,
2013-03-08 06:52:00,38.0,29.0,-100.00,SW,231,4.0,13.0,69,0.00,,,0.00,0.000000,,2013-03-08 14:52:00,
2013-03-08 07:02:00,38.0,29.0,-100.00,SW,231,4.0,13.0,69,0.00,,,0.00,0.000000,,2013-03-08 15:02:00,
2013-03-08 07:11:00,38.0,29.0,-100.00,SW,231,4.0,13.0,69,0.00,,,0.00,0.000000,,2013-03-08 15:11:00,
2013-03-08 07:21:00,38.0,29.0,-100.00,SW,231,4.0,13.0,69,0.00,,,0.00,0.000000,,2013-03-08 15:21:00,
2013-03-08 07:53:00,39.0,30.0,-100.00,ESE,118,0.0,13.0,70,0.00,,,0.00,28.000000,,2013-03-08 15:53:00,
2013-03-08 08:01:00,39.0,30.0,-100.00,ESE,118,0.0,13.0,70,0.00,,,0.00,28.000000,,2013-03-08 16:01:00,
2013-03-08 08:11:00,39.0,30.0,-100.00,ESE,118,0.0,13.0,70,0.00,,,0.00,28.000000,,2013-03-08 16:11:00,
2013-03-08 08:21:00,39.0,30.0,-100.00,ESE,118,0.0,13.0,70,0.00,,,0.00,28.000000,,2013-03-08 16:21:00,
2013-03-08 08:52:00,33.0,30.0,-100.00,SSW,211,8.0,12.0,89,0.01,,,-99.99,22.000000,,2013-03-08 16:52:00,
2013-03-08 09:02:00,33.0,30.0,-100.00,SSW,211,8.0,12.0,89,0.01,,,-99.99,22.000000,,2013-03-08 17:02:00,
2013-03-08 09:11:00,33.0,30.0,-100.00,SSW,211,8.0,12.0,89,0.01,,,-99.99,22.000000,,2013-03-08 17:11:00,
2013-03-08 09:21:00,33.0,30.0,-100.00,SSW,211,8.0,12.0,89,0.01,,,-99.99,22.000000,,2013-03-08 17:21:00,
2013-03-08 09:52:00,34.0,32.0,-100.00,SW,216,7.0,10.0,93,0.07,,,0.08,36.000000,,2013-03-08 17:52:00,
2013-03-08 10:01:00,34.0,32.0,-100.00,SW,216,7.0,10.0,93,0.07,,,0.08,36.000000,,2013-03-08 18:01:00,
2013-03-08 10:11:00,34.0,32.0,-100.00,SW,216,7.0,10.0,93,0.07,,,0.08,36.000000,,2013-03-08 18:11:00,
2013-03-08 10:21:00,34.0,32.0,-100.00,SW,216,7.0,10.0,93,0.07,,,0.08,36.000000,,2013-03-08 18:21:00,
2013-03-08 10:52:00,36.0,33.0,-100.00,SW,230,2.0,10.0,90,0.10,,,0.18,90.000000,,2013-03-08 18:52:00,
2013-03-08 11:01:00,36.0,33.0,-100.00,SW,230,2.0,10.0,90,0.10,,,0.18,90.000000,,2013-03-08 19:01:00,
2013-03-08 11:11:00,36.0,33.0,-100.00,SW,230,2.0,10.0,90,0.10,,,0.18,90.000000,,2013-03-08 19:11:00,
2013-03-08 11:21:00,36.0,33.0,-100.00,SW,230,2.0,10.0,90,0.10,,,0.18,90.000000,,2013-03-08 19:21:00,
2013-03-08 11:52:00,38.0,35.0,-100.00,SSW,210,5.0,6.0,89,0.03,,,0.21,196.000000,,2013-03-08 19:52:00,
2013-03-08 12:01:00,38.0,35.0,-100.00,SSW,210,5.0,6.0,89,0.03,,,0.21,196.000000,,2013-03-08 20:01:00,
2013-03-08 12:11:00,38.0,35.0,-100.00,SSW,210,5.0,6.0,89,0.03,,,0.21,196.000000,,2013-03-08 20:11:00,
2013-03-08 12:21:00,38.0,35.0,-100.00,SSW,210,5.0,6.0,89,0.03,,,0.21,196.000000,,2013-03-08 20:21:00,
2013-03-08 12:53:00,40.0,36.0,-100.00,East,100,0.0,7.0,84,0.00,,,0.21,314.000000,,2013-03-08 20:53:00,
2013-03-08 13:01:00,40.0,36.0,-100.00,East,100,0.0,7.0,84,0.00,,,0.21,314.000000,,2013-03-08 21:01:00,
2013-03-08 13:11:00,40.0,36.0,-100.00,East,100,0.0,7.0,84,0.00,,,0.21,314.000000,,2013-03-08 21:11:00,
2013-03-08 13:21:00,40.0,36.0,-100.00,East,100,0.0,7.0,84,0.00,,,0.21,314.000000,,2013-03-08 21:21:00,
2013-03-08 13:52:00,39.0,36.0,-100.00,South,177,1.0,6.0,89,0.00,,,0.21,355.000000,,2013-03-08 21:52:00,
2013-03-08 14:01:00,39.0,36.0,-100.00,South,177,1.0,6.0,89,0.00,,,0.21,355.000000,,2013-03-08 22:01:00,
2013-03-08 14:11:00,39.0,36.0,-100.00,South,177,1.0,6.0,89,0.00,,,0.21,355.000000,,2013-03-08 22:11:00,
2013-03-08 14:21:00,39.0,36.0,-100.00,South,177,1.0,6.0,89,0.00,,,0.21,355.000000,,2013-03-08 22:21:00,
2013-03-08 14:52:00,40.0,37.0,-100.00,WSW,244,0.0,9.0,90,0.00,,,0.21,238.000000,,2013-03-08 22:52:00,
2013-03-08 15:01:00,40.0,37.0,-100.00,WSW,244,0.0,9.0,90,0.00,,,0.21,238.000000,,2013-03-08 23:01:00,
2013-03-08 15:11:00,40.0,37.0,-100.00,WSW,244,0.0,9.0,90,0.00,,,0.21,238.000000,,2013-03-08 23:11:00,
2013-03-08 15:21:00,40.0,37.0,-100.00,WSW,244,0.0,9.0,90,0.00,,,0.21,238.000000,,2013-03-08 23:21:00,
2013-03-08 15:53:00,37.0,35.0,-100.00,South,177,0.0,9.0,93,0.00,,,-99.99,183.000000,,2013-03-08 23:53:00,
2013-03-08 16:01:00,37.0,35.0,-100.00,South,177,0.0,9.0,93,0.00,,,-99.99,183.000000,,2013-03-09 00:01:00,
2013-03-08 16:11:00,37.0,35.0,-100.00,South,177,0.0,9.0,93,0.00,,,-99.99,183.000000,,2013-03-09 00:11:00,
2013-03-08 16:21:00,37.0,35.0,-100.00,South,177,0.0,9.0,93,0.00,,,-99.99,183.000000,,2013-03-09 00:21:00,
2013-03-08 16:52:00,38.0,37.0,-100.00,East,96,0.0,8.0,95,0.00,,,0.21,122.000000,,2013-03-09 00:52:00,
2013-03-08 17:01:00,38.0,37.0,-100.00,East,96,0.0,8.0,95,0.00,,,0.21,122.000000,,2013-03-09 01:01:00,
2013-03-08 17:12:00,38.0,37.0,-100.00,East,96,0.0,8.0,95,0.00,,,0.21,122.000000,,2013-03-09 01:12:00,
2013-03-08 17:21:00,38.0,37.0,-100.00,East,96,0.0,8.0,95,0.00,,,0.21,122.000000,,2013-03-09 01:21:00,
2013-03-08 19:52:00,37.0,32.0,-100.00,SW,226,0.0,4.0,83,-99.99,,,0.21,0.000000,,2013-03-09 03:52:00,
2013-03-08 20:01:00,37.0,32.0,-100.00,SW,226,0.0,4.0,83,-99.99,,,0.21,0.000000,,2013-03-09 04:01:00,
2013-03-08 20:11:00,37.0,32.0,-100.00,SW,226,0.0,4.0,83,-99.99,,,0.21,0.000000,,2013-03-09 04:11:00,
2013-03-08 20:22:00,37.0,32.0,-100.00,SW,226,0.0,4.0,83,-99.99,,,0.21,0.000000,,2013-03-09 04:22:00,
2013-03-08 20:52:00,36.0,33.0,-100.00,WSW,256,1.0,6.0,89,0.00,,,-99.99,0.000000,,2013-03-09 04:52:00,
2013-03-08 21:01:00,36.0,33.0,-100.00,WSW,256,1.0,6.0,89,0.00,,,-99.99,0.000000,,2013-03-09 05:01:00,
2013-03-08 21:11:00,36.0,33.0,-100.00,WSW,256,1.0,6.0,89,0.00,,,-99.99,0.000000,,2013-03-09 05:11:00,
2013-03-08 21:21:00,36.0,33.0,-100.00,WSW,256,1.0,6.0,89,0.00,,,-99.99,0.000000,,2013-03-09 05:21:00,
2013-03-08 21:53:00,37.0,31.0,-100.00,SW,217,0.0,7.0,79,0.00,,,0.21,0.000000,,2013-03-09 05:53:00,
2013-03-08 22:01:00,37.0,31.0,-100.00,SW,217,0.0,7.0,79,0.00,,,0.21,0.000000,,2013-03-09 06:01:00,
2013-03-08 22:11:00,37.0,31.0,-100.00,SW,217,0.0,7.0,79,0.00,,,0.21,0.000000,,2013-03-09 06:11:00,
2013-03-08 22:22:00,37.0,31.0,-100.00,SW,217,0.0,7.0,79,0.00,,,0.21,0.000000,,2013-03-09 06:22:00,
2013-03-08 22:52:00,42.0,28.0,-100.00,West,281,9.0,23.0,57,0.00,,,0.21,0.000000,,2013-03-09 06:52:00,
2013-03-08 23:01:00,42.0,28.0,-100.00,West,281,9.0,23.0,57,0.00,,,0.21,0.000000,,2013-03-09 07:01:00,
2013-03-08 23:11:00,42.0,28.0,-100.00,West,281,9.0,23.0,57,0.00,,,0.21,0.000000,,2013-03-09 07:11:00,
2013-03-08 23:21:00,42.0,28.0,-100.00,West,281,9.0,23.0,57,0.00,,,0.21,0.000000,,2013-03-09 07:21:00,
2013-03-08 23:52:00,42.0,28.0,-100.00,West,278,9.0,21.0,58,0.00,,,0.21,0.000000,,2013-03-09 07:52:00,